Location: DeLan Observatory
(46.9670°N, 70.5500°W)
Time: 13:19:32
(UTC-04:00)

Envisat - Visible Passes

Search period start: 24 March 2019 00:00
Search period end: 03 April 2019 00:00
Orbit: 764 x 766 km, 98.2° (Epoch: 24 March)

Date Brightness Start Highest point End Pass type
(mag) Time Alt. Az. Time Alt. Az. Time Alt. Az.
24 Mar 5.0 20:06:48 10° SSW 20:11:14 30° W 20:15:42 10° NNW visible
25 Mar 3.6 19:29:17 10° S 19:34:18 63° W 19:39:22 10° NNW visible
26 Mar 5.8 20:33:34 10° SW 20:37:02 18° W 20:40:30 10° NW visible
27 Mar 4.7 19:55:15 10° SSW 19:59:56 37° W 20:04:40 10° NNW visible
28 Mar 6.3 21:02:06 10° W 21:02:56 10° W 21:03:45 10° WNW visible
29 Mar 5.5 20:21:44 10° SW 20:25:41 23° W 20:29:40 10° NW visible
30 Mar 4.2 19:43:48 10° S 19:48:40 46° W 19:53:34 10° NNW visible
31 Mar 6.0 20:49:08 10° WSW 20:51:32 13° W 20:53:58 10° WNW visible
01 Apr 5.2 20:10:03 10° SSW 20:14:22 28° W 20:18:43 10° NW visible
